Regional Weather Roundup
Issued by NWS

Home | Current Version | Previous Version | Graphics & Text | Print | Product List | Glossary On
Versions: 1 2 3 4 5 6 7 8 9 10 11 12 13 14 15 16 17 18 19 20 21 22 23 24 25 26 27
000
ASUS45 KSLC 251810
RWRUT

UTAH REGIONAL WEATHER ROUNDUP
NATIONAL WEATHER SERVICE SALT LAKE CITY UT
1100 AM MST SAT FEB 25 2017

UTZ001>011-023>025-251900-

NORTHERN UTAH

CITY           SKY/WX    TMP DP  RH WIND       PRES   REMARKS
BRIGHAM CITY     N/A     28  21  74 S9        30.09S WCI  19
HILL AFB       PTSUNNY   25  16  68 SE7       30.07S WCI  17
LOGAN          LGT SNOW  24  17  74 N6        30.07F WCI  17
OGDEN          LGT SNOW  26  19  74 SE9       30.08S WCI  17
SALT LAKE CITY CLOUDY    29  17  61 S7        30.10R WCI  22
TOOELE VALLEY  CLOUDY    30  19  64 S3        30.10S
WENDOVER       MOSUNNY   30  16  55 E5        30.09F WCI  25
HEBER CITY     LGT SNOW  14   7  73 CALM      30.05S
WEST JORDAN    CLOUDY    29  24  79 S7        30.10R WCI  22

$$

UTZ011>015-024>027-251900-

CENTRAL/NORTHEAST UTAH

CITY           SKY/WX    TMP DP  RH WIND       PRES   REMARKS
PROVO AIRPORT  CLOUDY    26  14  60 SE3       30.12S
MOAB/CANYONLAN SUNNY     34   9  35 CALM      30.07F
DELTA          PTSUNNY   27  18  69 E3        30.08S
PRICE          CLOUDY    24   6  46 S3        30.03S
RICHFIELD      PTSUNNY   25  14  63 NW1       30.08F
ROOSEVELT      SUNNY     23  14  68 CALM      30.09S
VERNAL         CLOUDY    19  14  81 CALM      30.06F

$$

UTZ013>016-019>022-027-251900-

SOUTHERN UTAH

CITY           SKY/WX    TMP DP  RH WIND       PRES   REMARKS
BRYCE CANYON   CLOUDY    25   4  40 CALM      29.99F
CEDAR CITY     PTSUNNY   32   8  36 W5        30.02S WCI  27
MILFORD        CLOUDY    30  16  56 S14       30.05S WCI  19
ST GEORGE      MOCLDY    39  19  44 CALM      30.12F
HANKSVILLE     SUNNY     32   5  32 CALM      30.10F
KANAB          SUNNY     39   7  26 S10       30.10F WCI  32
BLANDING       MOSUNNY   32   4  31 SW5       30.13S WCI  28

$$

REGIONAL REPORTS     COLORADO/ARIZONA

CITY           SKY/WX    TMP DP  RH WIND       PRES   REMARKS
CRAIG, CO      CLOUDY    20   9  62 CALM      29.99F
GRAND JUNCTION CLOUDY    29  14  53 SW3       30.08S
RIFLE, CO      MOSUNNY   21  12  68 CALM      30.05F
MONTROSE, CO   MOSUNNY   29   3  33 NW3       30.07F
CORTEZ, CO     PTSUNNY   31   3  30 SW3       30.06F
COLORADO CITY    N/A     41  14  33 CALM      30.09F
PAGE, AZ       SUNNY     39   4  23 N6        30.08F WCI  35
GRAND CANYON   SUNNY     33  14  45 S10       30.05S WCI  25
KINGMAN, AZ    SUNNY     50   0  12 SW14      30.09S
FLAGSTAFF, AZ  SUNNY     37   5  26 W12G21    30.04F WCI  29

$$

REGIONAL REPORTS    NEVADA/IDAHO/WYOMING

CITY           SKY/WX    TMP DP  RH WIND       PRES   REMARKS
LAS VEGAS, NV  MOSUNNY   48  16  27 VRB5      30.09S
ELY, NY        CLOUDY    25  13  60 N3        30.04S
ELKO, NV       CLOUDY    27  13  55 VRB3      30.08S
POCATELLO, ID  MOSUNNY   19  10  68 NW8       30.07S WCI   9
BURLEY, ID     MIX PCPN  28  14  55 W14       30.07F WCI  17
FORT BRIDGER,    N/A     18  10  69 W24       29.96S WCI   1
EVANSTON, WY   CLOUDY    13   5  70 SW16      29.94F WCI  -3
ROCK SPRINGS,  CLOUDY    14   3  61 W17       29.93F WCI  -3

$$




USA.gov is the U.S. government's official web portal to all federal, state and local government web resources and services.